Find STARLINK-36965

NORAD ID: 70594 Constellation: starlink operational
LEOCIRCULAR

リアルタイム位置

3D地球を読み込み中...

STARLINK-36965について

説明を読み込み中...

次回通過

Passes for default location (London). Set your location on the main map for personalized predictions.

高度履歴

Loading altitude history...

軌道要素

1 70594C 26099L 26122.90465278 -.00273520 00000+0 -33344-3 0 1223
2 70594 53.1635 22.4840 0004902 289.1541 266.9225 16.07441700 18
Epoch: May 2, 2026 • Age: 31 hours